Dewpoint
56 57 56 55 54 54 53 51 51 50 50 47 46 44 42 41 40 40 41 43 44 43 42 43 44 43 43 40 38 39 40 42
54 56 56 54 52 51 49 48 47 46 45 43 43 42 40 39 39 39 40 41 41 40 42 41 42 43 43 43 38 35 38 41
52 53 56 54 52 50 50 48 48 47 46 45 44 43 40 39 39 39 40 40 40 41 41 41 41 41 41 42 40 37 38 40
51 52 55 54 52 50 49 47 47 47 44 41 41 40 39 37 36 36 39 40 41 42 42 42 42 43 41 42 41 40 38 40
52 52 54 53 52 51 49 48 48 48 42 40 37 37 38 38 37 38 38 38 39 41 41 41 42 42 42 41 41 41 36 34
51 49 51 52 52 52 50 49 48 45 42 40 39 38 38 38 37 35 35 37 39 40 41 41 41 42 42 42 41 40 41 35
46 47 51 52 52 52 51 48 47 46 43 43 39 37 37 36 35 34 36 38 39 39 39 41 41 41 41 40 40 40 39 38
45 47 48 52 53 53 51 48 46 44 43 41 39 37 38 36 36 35 37 37 37 38 39 38 38 39 40 40 40 38 38 37
47 47 48 48 53 53 50 48 46 46 45 41 39 39 39 39 37 37 38 37 37 38 38 38 38 39 39 39 38 39 37 37
46 47 46 46 52 51 49 48 47 46 44 42 40 40 40 39 37 38 39 39 39 38 37 37 38 37 37 38 37 35 37 37
44 44 44 46 50 51 50 48 47 46 44 42 40 39 38 38 38 41 39 38 40 38 38 37 37 38 37 35 36 36 35 36
42 43 43 47 50 50 49 47 46 45 43 41 39 40 40 40 41 39 39 39 39 38 38 37 36 35 34 33 34 35 34 34
43 43 42 44 49 49 48 46 46 45 42 40 38 39 41 40 39 41 40 39 39 39 38 37 35 35 34 33 33 33 33 33
42 41 41 42 47 48 47 45 45 45 42 40 39 39 39 40 40 40 40 40 39 38 36 36 35 34 33 33 33 33 33 34
41 40 40 41 44 46 45 45 45 44 42 40 39 39 39 40 41 39 40 40 38 37 36 36 35 33 32 32 32 32 33 33
41 40 40 40 43 44 43 44 44 43 42 40 39 39 40 40 40 39 39 39 38 37 37 36 34 30 29 31 31 30 30 32
41 40 40 40 42 43 42 43 43 42 41 40 40 39 40 39 39 39 39 39 38 37 37 35 34 28 31 32 33 29 30 29
40 40 40 40 41 42 41 42 42 41 40 40 40 39 39 39 39 39 38 37 37 37 36 36 32 27 25 26 29 32 31 30
39 40 40 40 41 41 41 41 41 39 39 40 39 38 38 39 38 38 38 38 37 37 36 36 30 25 20 18 22 30 33 31
Wind_Speed
19 19 16 16 14 15 16 18 15 17 13 16 13 14 16 11 14 13 15 13 11 12 17 17 16 16 16 13 16 15 10 6
19 17 14 15 16 17 13 17 19 12 13 14 11 9 11 10 13 14 12 15 16 14 15 17 16 16 15 13 12 16 17 8
20 20 16 18 17 16 14 14 13 16 11 7 10 11 9 9 10 12 12 12 14 14 17 16 15 16 16 16 10 8 16 16
25 25 24 22 22 19 18 16 16 14 14 16 16 14 12 10 10 10 10 11 13 11 18 16 16 15 15 16 14 10 13 13
28 27 25 23 21 19 19 18 16 14 15 16 19 15 14 8 13 11 12 13 14 13 18 16 16 14 16 14 15 14 12 13
31 29 26 22 23 22 20 19 18 19 17 16 15 16 15 14 14 16 12 12 14 16 17 15 16 12 17 19 17 17 14 16
30 28 26 25 25 23 21 21 20 18 18 16 20 22 19 17 16 16 12 10 12 15 15 12 12 15 16 16 16 18 16 17
32 31 30 28 27 25 24 22 22 20 19 18 19 20 18 20 17 17 15 13 12 12 12 13 14 14 13 14 16 17 17 16
33 32 29 26 29 26 26 24 23 22 19 20 18 18 16 16 16 16 14 14 12 12 13 12 12 14 13 12 12 15 16 16
34 31 30 27 28 28 27 23 23 22 21 20 20 18 18 18 18 16 15 16 13 13 13 13 13 13 13 13 14 14 14 14
32 33 32 29 30 27 26 23 25 23 23 21 20 19 19 18 17 17 20 17 14 15 13 13 11 11 12 12 13 13 15 11
34 32 28 29 30 28 27 25 26 24 24 21 21 18 17 19 18 20 19 18 17 15 14 13 12 12 12 12 13 13 13 12
34 32 31 32 31 29 28 25 26 25 24 23 22 18 20 20 20 19 21 19 16 16 15 14 12 11 12 13 13 12 12 11
31 33 32 32 30 30 27 26 25 25 25 24 22 22 22 20 20 20 20 18 17 15 15 15 14 11 12 11 12 11 11 10
31 31 30 31 30 30 28 25 26 25 24 24 23 23 22 20 20 20 19 17 18 16 15 15 14 12 11 11 10 9 10 8
36 35 30 30 29 28 27 25 26 26 25 24 23 23 20 20 21 20 18 17 17 16 15 15 13 12 9 12 10 9 8 6
31 32 31 32 31 31 28 25 27 26 25 24 22 23 21 22 21 20 19 17 17 17 17 16 14 10 14 12 9 7 8 8
32 35 34 32 32 32 31 26 26 25 24 23 23 22 22 23 21 20 21 21 17 18 18 17 13 13 13 12 9 6 8 8
33 31 30 29 29 29 28 27 28 25 25 24 24 22 22 22 22 21 22 19 20 19 19 17 16 13 15 13 10 5 2 8
Wind_Direction
130 115 110 102 106 118 120 117 117 128 112 95 84 83 75 80 85 74 71 64 84 79 74 62 50 49 42 66 81 74 71 43
137 133 132 127 128 132 133 127 121 107 117 121 108 92 94 85 84 82 73 81 81 79 88 76 61 54 48 53 60 57 48 57
163 159 162 160 164 158 151 145 134 133 128 119 110 120 105 98 81 74 74 72 83 86 88 85 74 62 54 55 78 73 59 44
175 175 179 171 172 167 160 158 144 139 125 112 109 112 112 106 80 71 57 70 67 72 84 85 79 73 59 55 61 71 87 59
179 177 177 174 168 166 167 167 159 151 145 140 141 149 141 136 102 88 65 69 70 71 78 75 73 79 71 65 58 65 70 71
176 175 175 168 165 167 168 169 171 159 156 153 148 138 133 129 121 110 99 86 83 79 81 87 83 80 72 70 65 64 63 72
174 170 168 168 171 166 167 166 159 156 159 154 151 146 143 135 128 115 114 101 89 86 87 89 93 79 85 87 83 76 72 69
172 166 169 168 171 169 168 163 163 162 165 155 151 153 150 147 145 139 134 116 103 107 103 95 90 92 90 85 84 78 72 72
170 171 170 170 169 168 167 162 163 164 159 154 153 153 154 153 150 144 141 131 131 121 114 104 99 98 91 92 85 84 78 72
170 168 167 165 161 165 165 161 162 160 154 156 161 161 160 161 157 155 147 140 136 127 119 113 103 105 102 94 90 84 86 79
167 168 168 164 159 160 164 161 161 159 155 158 166 167 167 168 162 152 145 145 137 135 127 119 111 115 110 99 97 90 84 75
170 171 166 154 157 160 165 157 159 158 157 159 168 177 170 161 148 149 148 145 143 140 133 126 120 118 114 105 97 95 89 78
168 163 156 154 157 164 164 156 158 160 157 161 172 167 155 153 152 150 146 149 150 148 143 136 129 123 112 112 102 98 93 83
161 156 159 160 160 163 162 155 159 159 160 162 166 162 159 157 152 148 153 156 156 154 147 141 136 130 123 116 112 111 106 97
158 161 162 163 162 162 163 153 159 160 158 161 165 163 164 160 154 158 161 162 158 157 153 146 144 147 142 132 125 120 130 127
160 165 164 163 161 163 165 155 160 160 160 162 167 165 162 159 157 162 166 165 164 162 153 151 151 155 142 138 137 132 129 126
162 164 162 166 164 165 167 158 162 161 162 163 163 165 163 164 162 166 169 169 169 163 159 160 161 143 141 133 132 147 130 113
164 166 170 170 167 166 169 160 158 161 160 162 167 166 164 166 165 170 175 176 171 172 166 165 157 156 156 150 134 115 135 125
170 168 171 167 165 166 161 156 161 162 164 165 169 168 168 168 172 178 181 179 179 177 171 167 162 169 163 154 154 153 138 163